OPS 4682 DEB, 38439

Orbit data source: Space-Track

OPS 4682 DEB, 38439 is space debris in LEO originally from a launch on Sat, 03 Apr 1965 UTC launched from the Air Force Western Test Range (AFWTR). Debris objects in space refer to the collection of defunct objects orbiting the Earth. Examples of debris include non-operational satellites, rocket bodies, and fragments generated from explosions, collisions, or faulty payload assembly.

Loading next visibility...
Identifier
38439, 1965-027EU
Orbit
LEO
Country
Flag of USUS
Related business
Manufacturer
Unknown
Mission
Spacecraft
Bus & Motor
Unknown
Mass
Unknown
Launch date (UTC)
1965-04-03 (61 years ago)
Launch vehicle
Unknown
Launch site
Air Force Western Test Range (AFWTR)
Object type
Payload
Rocket body
Debris
Shape & HBR
Unknown shape, 0.1 m
Radar Cross Section
Small (<0.1 m²)

Expand to show TLE details & history
Last TLE update: 5 days ago

TLE from 5 days ago
0 OPS 4682 DEB
1 38439U 65027EU  26068.33918720  .00000852  00000-0  28046-2 0  9999
2 38439  90.3017  33.1168 0035761 299.6243  60.1319 12.99894810651810
Epoch: 2026-03-09T08:08Z
TLE epoch observation values (Epoch: 2026-03-09T08:08:25.774Z)
Latitude
0.00004°
Longitude
103.97586°
Altitude
1,251.846 km
Speed
7.236 km/s
True Right ascension
02h 12m 28s
True Declination
0° 00' 00"
Sunlit
Object was in daylight at epoch
Visualization orbit readout
Latitude
Unknown
Longitude
Unknown
Altitude
Unknown
Speed
Unknown
Apparent Right ascension
Unknown
Apparent Declination
Unknown
Sunlit
N/A
Visualization observer readout
Local Sidereal Time
07:37:37
Azimuth
Unknown
Elevation
Unknown
Doppler factor
Unknown
Orbital elements
Apogee altitude
1,286.939 km
Perigee altitude
1,232.313 km
Semi-major axis
7,637.763 km
Eccentricity
0.00358
Inclination
90.3017°
RAAN
33.1168°
Arg. of periapsis
299.6243°
True anomaly
60.48805°
Mean anomaly
60.1319°
Eccentric anomaly
60.3099°
Mean motion
3.25158 °/min
Orbital period
110.72 mins
BSTAR
0.0028046
Loading maneuver chart data...
Computing Atmospheric mass density...
Loading historical data...
Loading historical data...
Loading historical data...
Loading historical data...
Loading historical data...
Loading historical data...
Loading historical data...

Documentation

Showing up to 5 results
|